Other Surface Observations
Issued by NWS

Home | Current Version | Previous Version | Text Only | Print | Product List | Glossary On
Versions: 1 2 3 4 5 6 7 8 9 10 11 12 13 14 15 16 17 18 19 20 21 22 23 24 25 26 27 28 29 30 31 32 33 34 35 36 37 38 39 40 41 42 43 44 45 46 47 48 49 50
828
SXUS52 KTAE 231518
OSOTAE
OSOTAE
North Florida/South Alabama/Southwest Georgia Weather Roundup
National Weather Service Tallahassee Florida
1100 AM EDT THU MAR 23 2017

Note: "fair" indicates few or no clouds below 12,000 feet with no
significant weather and/or obstructions to visibility.

!FLZ017-115-028-034-025-231600
...North Florida...

CITY           SKY/WX    TMP DP  RH WIND       PRES   REMARKS
TALLAHASSEE    CLOUDY    70  57  63 E14G22    30.30R
APALACHICOLA   CLOUDY    68  61  78 E15G25    30.26R
PERRY          CLOUDY    71  59  64 E8G16     30.30R
CROSS CITY     MOSUNNY   72  61  68 E13       30.28S
JACKSONVILLE   CLOUDY    67  60  78 E13       30.35R
$$

!FLZ112-006-005-002-011-231600
...Florida Panhandle...

CITY           SKY/WX    TMP DP  RH WIND       PRES   REMARKS
MARIANNA       CLOUDY    67  56  67 E8        30.30R
BONIFAY        CLOUDY    67  57  70 E9        30.31R
PANAMA CITY NW FAIR      71  58  63 E10       30.26R
TYNDALL AFB    SUNNY     70  59  67 E13       30.26R
TYND DRONE APT PTSUNNY   70  61  73 E15G28    30.26R
DE FUNIAK SPR  FAIR      69  56  63 E10       30.29R
EGLIN AFB      PTSUNNY   70  56  61 E9        30.26R
DESTIN         MOSUNNY   71  60  68 SE12      30.27R
HURLBURT       PTSUNNY   72  55  56 E12G21    30.25R
CRESTVIEW      SUNNY     72  56  57 SE10      30.29R
PENSACOLA      CLOUDY    70  60  70 SE14      30.27R
$$

!ALZ063-066-231600
...South Alabama...

CITY           SKY/WX    TMP DP  RH WIND       PRES   REMARKS
DOTHAN         CLOUDY    65  55  70 E12       30.35R
OZARK CAIRNS   CLOUDY    66  54  66 E13       30.31R
FT RUCKER HELI CLOUDY    65  54  66 E9        30.31R
RUCKER HELI 3  CLOUDY    65  54  65 E14       30.30R
RUCKER HELI 2  CLOUDY    66  54  65 E9        30.31R
FLORALA APT    SUNNY     69  55  60 VRB7      30.30R
ANDALUSIA      MOSUNNY   71  55  56 E9        30.29R
TROY           MOSUNNY   65  52  62 E10       30.32R
EUFALA         CLOUDY    66  51  58 E9        30.35R
MOBILE         SUNNY     71  51  49 E9        30.27R
$$

!GAZ120>161-231600
...Southwest and South Central Georgia...

CITY           SKY/WX    TMP DP  RH WIND       PRES   REMARKS
THOMASVILLE    CLOUDY    66  59  77 E10       30.35R
BAINBRIDGE     PTSUNNY   66  54  63 E12G18    30.33R
MOODY AFB      CLOUDY    65  53  63 E14G23    30.34R
VALDOSTA       CLOUDY    66  55  67 E9        30.34R
MOULTRIE       PTSUNNY   64  54  68 E9G16     30.35R
BLAKELY        CLOUDY    68  54  60 E9        30.35R
ALBANY         CLOUDY    66  54  65 E14       30.38R
TIFTON         CLOUDY    62  53  70 E12G20    30.36R
FITZGERALD     CLOUDY    62  51  67 E12G21    30.41R
CORDELE        PTSUNNY   65  51  61 E15G21    30.40R
AMERICUS       CLOUDY    61  45  55 E12       30.41R
HOMERVILLE     CLOUDY    63  54  72 E6G16     30.38R
$$

!GMZ750-755-770-775-231600
...Coastal and Buoy Obs...

STATION/POSITION TIME  TEMP    WIND        PRES    VSBY  WAVE
                       AIR SEA DIR/SP/G                  HT/PER
                 (UTC) (F)     (DEG/KT/KT) (MB)    (MI)  (FT/S)
KEATON BEACH     1500   69      70/ 15/ 18 1025.0R
CEDAR KEY        1500   68      80/ 12/ 15 1025.3R
C TOWER          1500   65      80/ 25/ 26 1025.0R
APALACHICOLA BUO 1450   69 67   90/ 14/ 16 1023.8R         2/ 4
PANAMA CITY BUOY 1450   71 71              1023.3R         3/ 4
MOBILE BUOY      1500   71 73   80/ 12/ 14 1023.5
ORANGE BCH AL BU 1450   69 68  110/ 16/ 17 1023.9R         3/ 4
$$




USA.gov is the U.S. government's official web portal to all federal, state and local government web resources and services.